User: anonymous   Login
Location: Vancouver
(49.2500°N, 123.1330°W)
Time: 04:07:34
(UTC-07:00)
Language:

H-2A R/B - Orbit

View from above orbital plane
View from above orbital plane
View from above satellite
View from above satellite

Ground track
Ground track

The orbit data is extracted from the following two-line orbital elements,

1 27601U 02056E   14303.22212168  .00000402  00000-0  16326-3 0  2219
2 27601 098.4747 022.7129 0071459 259.7439 156.9604 14.31441219620318
Epoch (UTC): 30 October 2014 05:19:51
Eccentricity: 0.0071459
inclination: 98.4747°
perigee height: 736 km
apogee height: 838 km
right ascension of ascending node: 22.7129°
argument of perigee: 259.7439°
revolutions per day: 14.31441219
mean anomaly at epoch: 156.9604°
orbit number at epoch: 62031

The dashed part of the orbit path shows where the satellite is in the earth's shadow,  

DLR